When you browse on this site, cookies collect data to enhance your experience and personalize the content and advertising you see.
Visit our Privacy Policy to learn more. By continuing to use the site, you agree to this use of cookies and data.

Stündliche Wetter Çay

Heute, 13 Juli, Montag

Zeit Temperatur Niederschläge Wind Luftdruck Luftfeuchtigkeit
00:00 +20°C° 0 mm 2 m/S 668 mmHg 63%
01:00 +19°C° 0 mm 2 m/S 668 mmHg 66%
02:00 +18°C° 0 mm 2 m/S 668 mmHg 69%
03:00 +18°C° 0 mm 2 m/S 668 mmHg 71%
04:00 +18°C° 0 mm 1 m/S 667 mmHg 73%
05:00 +18°C° 0 mm 1 m/S 667 mmHg 75%
06:00 +19°C° 0 mm 1 m/S 668 mmHg 69%
07:00 +20°C° 0 mm 2 m/S 668 mmHg 64%
08:00 +21°C° 0 mm 2 m/S 669 mmHg 59%
09:00 +24°C° 0 mm 2 m/S 669 mmHg 55%
10:00 +25°C° 0 mm 2 m/S 669 mmHg 51%
11:00 +27°C° 0 mm 3 m/S 669 mmHg 46%
12:00 +28°C° 0 mm 3 m/S 669 mmHg 42%
13:00 +29°C° 0 mm 3 m/S 669 mmHg 38%
14:00 +30°C° 0 mm 4 m/S 669 mmHg 34%
15:00 +30°C° 0 mm 4 m/S 669 mmHg 34%
16:00 +30°C° 0 mm 5 m/S 668 mmHg 34%
17:00 +29°C° 0 mm 5 m/S 668 mmHg 33%
18:00 +27°C° 0 mm 5 m/S 668 mmHg 41%
19:00 +25°C° 0 mm 5 m/S 668 mmHg 49%
20:00 +22°C° 0 mm 5 m/S 668 mmHg 56%
21:00 +21°C° 0 mm 4 m/S 668 mmHg 62%
22:00 +20°C° 0 mm 3 m/S 668 mmHg 68%
23:00 +19°C° 0 mm 2 m/S 669 mmHg 75%

Morgen, 14 Juli, Dienstag

Zeit Temperatur Niederschläge Wind Luftdruck Luftfeuchtigkeit
00:00 +18°C° 0 mm 2 m/S 669 mmHg 77%
01:00 +18°C° 0 mm 2 m/S 669 mmHg 80%
02:00 +17°C° 0 mm 2 m/S 669 mmHg 83%
03:00 +18°C° 0 mm 1 m/S 669 mmHg 85%
04:00 +16°C° 0 mm 1 m/S 669 mmHg 87%
05:00 +16°C° 0 mm 1 m/S 668 mmHg 89%
06:00 +17°C° 0 mm 2 m/S 669 mmHg 81%
07:00 +19°C° 0 mm 2 m/S 669 mmHg 73%
08:00 +21°C° 0 mm 3 m/S 670 mmHg 65%
09:00 +22°C° 0 mm 3 m/S 670 mmHg 58%
10:00 +25°C° 0 mm 3 m/S 670 mmHg 52%
11:00 +27°C° 0 mm 4 m/S 670 mmHg 45%
12:00 +28°C° 0 mm 3 m/S 670 mmHg 41%
13:00 +29°C° 0 mm 3 m/S 670 mmHg 37%
14:00 +30°C° 0 mm 2 m/S 670 mmHg 33%
15:00 +31°C° 0 mm 2 m/S 670 mmHg 33%
16:00 +31°C° 0 mm 2 m/S 669 mmHg 32%
17:00 +31°C° 0 mm 2 m/S 669 mmHg 32%
18:00 +29°C° 0 mm 2 m/S 669 mmHg 36%
19:00 +28°C° 0 mm 2 m/S 669 mmHg 40%
20:00 +26°C° 0 mm 2 m/S 669 mmHg 44%
21:00 +25°C° 0 mm 2 m/S 669 mmHg 49%
22:00 +24°C° 0 mm 2 m/S 669 mmHg 54%
23:00 +23°C° 0 mm 2 m/S 670 mmHg 59%

übermorgen, 15 Juli, Mittwoch

Zeit Temperatur Niederschläge Wind Luftdruck Luftfeuchtigkeit
00:00 +22°C° 0 mm 1 m/S 669 mmHg 63%
01:00 +21°C° 0 mm 1 m/S 669 mmHg 68%
02:00 +20°C° 0 mm 1 m/S 669 mmHg 72%
03:00 +20°C° 0 mm 1 m/S 669 mmHg 75%
04:00 +20°C° 0 mm 1 m/S 669 mmHg 77%
05:00 +19°C° 0 mm 1 m/S 669 mmHg 80%
06:00 +21°C° 0 mm 1 m/S 670 mmHg 71%
07:00 +23°C° 0 mm 1 m/S 670 mmHg 63%
08:00 +25°C° 0 mm 1 m/S 671 mmHg 55%
09:00 +27°C° 0 mm 1 m/S 671 mmHg 48%
10:00 +29°C° 0 mm 1 m/S 671 mmHg 42%
11:00 +30°C° 0 mm 1 m/S 671 mmHg 36%
12:00 +31°C° 0 mm 1 m/S 671 mmHg 32%
13:00 +32°C° 0 mm 1 m/S 671 mmHg 28%
14:00 +33°C° 0 mm 1 m/S 671 mmHg 25%
15:00 +34°C° 0 mm 2 m/S 670 mmHg 25%
16:00 +34°C° 0 mm 2 m/S 670 mmHg 26%
17:00 +34°C° 0 mm 2 m/S 670 mmHg 26%
18:00 +31°C° 0 mm 2 m/S 670 mmHg 32%
19:00 +29°C° 0 mm 2 m/S 670 mmHg 38%
20:00 +27°C° 0 mm 2 m/S 670 mmHg 44%
21:00 +26°C° 0 mm 2 m/S 670 mmHg 51%
22:00 +24°C° 0 mm 2 m/S 670 mmHg 57%
23:00 +23°C° 0 mm 1 m/S 670 mmHg 63%

16 Juli, Donnerstag

Zeit Temperatur Niederschläge Wind Luftdruck Luftfeuchtigkeit
00:00 +22°C° 0 mm 1 m/S 669 mmHg 65%
01:00 +22°C° 0 mm 1 m/S 669 mmHg 68%
02:00 +21°C° 0 mm 1 m/S 669 mmHg 70%
03:00 +21°C° 0 mm 1 m/S 669 mmHg 72%
04:00 +20°C° 0 mm 1 m/S 668 mmHg 73%
05:00 +20°C° 0 mm 1 m/S 668 mmHg 75%
06:00 +21°C° 0 mm 1 m/S 668 mmHg 68%
07:00 +23°C° 0 mm 1 m/S 669 mmHg 60%
08:00 +25°C° 0 mm 1 m/S 669 mmHg 53%
09:00 +27°C° 0 mm 1 m/S 669 mmHg 48%
10:00 +28°C° 0 mm 1 m/S 669 mmHg 42%
11:00 +30°C° 0 mm 2 m/S 669 mmHg 37%
12:00 +31°C° 0 mm 2 m/S 669 mmHg 33%
13:00 +32°C° 0 mm 2 m/S 669 mmHg 30%
14:00 +34°C° 0 mm 2 m/S 668 mmHg 26%
15:00 +33°C° 0 mm 3 m/S 668 mmHg 31%
16:00 +32°C° 0 mm 4 m/S 667 mmHg 35%
17:00 +30°C° 0 mm 5 m/S 667 mmHg 40%
18:00 +28°C° 0.1 mm 4 m/S 667 mmHg 47%
19:00 +26°C° 0.1 mm 3 m/S 667 mmHg 55%
20:00 +24°C° 0.1 mm 2 m/S 667 mmHg 62%
21:00 +23°C° 0 mm 2 m/S 667 mmHg 66%
22:00 +21°C° 0 mm 2 m/S 667 mmHg 70%
23:00 +20°C° 0 mm 2 m/S 667 mmHg 74%

17 Juli, Freitag

Zeit Temperatur Niederschläge Wind Luftdruck Luftfeuchtigkeit
00:00 +20°C° 0 mm 2 m/S 667 mmHg 76%
01:00 +20°C° 0 mm 1 m/S 667 mmHg 78%
02:00 +19°C° 0 mm 1 m/S 666 mmHg 81%
03:00 +19°C° 0 mm 1 m/S 666 mmHg 82%
04:00 +19°C° 0 mm 1 m/S 666 mmHg 84%
05:00 +18°C° 0 mm 1 m/S 666 mmHg 85%
06:00 +20°C° 0 mm 1 m/S 666 mmHg 78%
07:00 +21°C° 0 mm 1 m/S 667 mmHg 72%
08:00 +23°C° 0 mm 1 m/S 667 mmHg 65%
09:00 +25°C° 0 mm 2 m/S 667 mmHg 58%
10:00 +27°C° 0 mm 2 m/S 667 mmHg 51%
11:00 +29°C° 0 mm 3 m/S 667 mmHg 43%
12:00 +30°C° 0 mm 3 m/S 667 mmHg 40%
13:00 +31°C° 0 mm 3 m/S 667 mmHg 36%
14:00 +33°C° 0 mm 3 m/S 667 mmHg 32%
15:00 +33°C° 0 mm 3 m/S 667 mmHg 33%
16:00 +31°C° 0 mm 3 m/S 666 mmHg 34%
17:00 +31°C° 0 mm 3 m/S 666 mmHg 36%
18:00 +30°C° 0 mm 3 m/S 666 mmHg 39%
19:00 +28°C° 0 mm 2 m/S 666 mmHg 43%
20:00 +27°C° 0 mm 2 m/S 666 mmHg 47%
21:00 +26°C° 0 mm 2 m/S 666 mmHg 50%
22:00 +25°C° 0 mm 1 m/S 667 mmHg 53%
23:00 +25°C° 0 mm 1 m/S 667 mmHg 56%

18 Juli, Samstag

Zeit Temperatur Niederschläge Wind Luftdruck Luftfeuchtigkeit
00:00 +24°C° 0 mm 1 m/S 666 mmHg 60%
01:00 +23°C° 0 mm 1 m/S 666 mmHg 64%
02:00 +22°C° 0 mm 1 m/S 666 mmHg 68%
03:00 +22°C° 0 mm 1 m/S 666 mmHg 71%
04:00 +21°C° 0 mm 1 m/S 666 mmHg 74%
05:00 +21°C° 0 mm 1 m/S 666 mmHg 76%
06:00 +23°C° 0 mm 1 m/S 667 mmHg 68%
07:00 +25°C° 0 mm 1 m/S 667 mmHg 60%
08:00 +27°C° 0 mm 1 m/S 667 mmHg 52%
09:00 +29°C° 0 mm 1 m/S 668 mmHg 45%
10:00 +30°C° 0 mm 2 m/S 668 mmHg 39%
11:00 +32°C° 0 mm 2 m/S 668 mmHg 33%
12:00 +34°C° 0 mm 2 m/S 668 mmHg 30%
13:00 +35°C° 0 mm 2 m/S 668 mmHg 27%
14:00 +34°C° 0 mm 1 m/S 668 mmHg 24%
15:00 +34°C° 0 mm 1 m/S 667 mmHg 25%
16:00 +35°C° 0 mm 2 m/S 667 mmHg 25%
17:00 +35°C° 0 mm 2 m/S 667 mmHg 26%
18:00 +32°C° 0 mm 2 m/S 667 mmHg 32%
19:00 +30°C° 0 mm 2 m/S 667 mmHg 38%
20:00 +28°C° 0 mm 2 m/S 667 mmHg 44%
21:00 +27°C° 0 mm 1 m/S 667 mmHg 51%
22:00 +26°C° 0 mm 1 m/S 667 mmHg 58%
23:00 +24°C° 0 mm 1 m/S 667 mmHg 64%
Mehr zeigen